Temp
-2 -2 -3 -4 -5 -6 -6 -7 -7 -7 -7 -8 -10 -10 -10 -11 -10 -9 -10 -11 -11 -12 -12 -13 -14 -14 -14 -14 -14 -14 -14 -14 -14 -14 -14 -14 -14 -14
-3 -2 -4 -4 -5 -7 -7 -8 -9 -8 -8 -11 -11 -11 -11 -12 -12 -11 -12 -12 -12 -13 -13 -14 -14 -14 -14 -14 -14 -14 -14 -14 -15 -15 -15 -15 -15 -15
-3 -4 -4 -5 -6 -7 -8 -9 -9 -10 -9 -9 -11 -12 -13 -13 -14 -14 -13 -13 -13 -14 -14 -14 -14 -14 -14 -14 -14 -14 -14 -15 -16 -16 -16 -16 -16 -16
-5 -4 -5 -6 -7 -8 -8 -9 -10 -10 -10 -10 -10 -11 -13 -14 -15 -15 -15 -14 -13 -14 -15 -15 -15 -15 -15 -15 -15 -15 -15 -16 -16 -16 -16 -16 -16 -16
-5 -5 -6 -6 -7 -8 -9 -10 -10 -11 -11 -12 -12 -13 -14 -15 -15 -16 -16 -16 -15 -14 -15 -15 -15 -15 -15 -15 -15 -15 -15 -16 -16 -17 -17 -17 -17 -16
-5 -6 -6 -7 -8 -9 -10 -10 -11 -12 -12 -12 -13 -13 -15 -15 -15 -16 -16 -17 -17 -16 -15 -15 -15 -15 -15 -15 -15 -15 -15 -16 -17 -17 -17 -17 -17 -17
-6 -6 -7 -8 -8 -9 -10 -10 -11 -12 -12 -13 -13 -14 -14 -15 -15 -16 -16 -16 -17 -16 -16 -16 -16 -16 -16 -16 -16 -16 -16 -17 -17 -17 -17 -17 -17 -17
-7 -7 -8 -9 -9 -10 -10 -11 -11 -12 -12 -13 -13 -14 -14 -15 -15 -16 -17 -17 -17 -17 -17 -16 -16 -16 -16 -16 -16 -16 -16 -17 -17 -18 -18 -17 -17 -17
-8 -8 -9 -10 -10 -11 -11 -11 -11 -12 -13 -13 -13 -14 -14 -15 -16 -16 -17 -17 -17 -17 -17 -17 -16 -16 -16 -16 -16 -16 -16 -17 -17 -18 -18 -18 -18 -17
-8 -9 -10 -10 -11 -11 -11 -12 -13 -13 -13 -14 -14 -14 -15 -15 -16 -17 -17 -17 -17 -17 -17 -17 -17 -16 -16 -16 -16 -16 -17 -17 -18 -18 -18 -18 -18 -18
-9 -10 -10 -11 -11 -12 -13 -13 -13 -14 -14 -15 -15 -15 -15 -15 -16 -17 -17 -17 -17 -17 -17 -18 -17 -17 -17 -17 -17 -17 -17 -17 -17 -17 -18 -18 -18 -18
-10 -10 -11 -11 -12 -12 -13 -13 -15 -15 -15 -16 -16 -16 -16 -16 -16 -17 -17 -17 -17 -17 -18 -19 -18 -17 -17 -17 -17 -17 -17 -17 -17 -17 -18 -18 -18 -18
-10 -11 -11 -11 -12 -12 -13 -14 -16 -16 -16 -16 -16 -16 -16 -16 -17 -17 -17 -17 -17 -17 -18 -18 -17 -17 -17 -17 -17 -17 -18 -18 -18 -18 -18 -18 -18 -18
-11 -11 -11 -12 -12 -13 -14 -15 -16 -17 -16 -16 -16 -16 -16 -17 -17 -17 -17 -17 -17 -17 -17 -18 -18 -18 -17 -17 -17 -18 -18 -18 -18 -18 -18 -18 -18 -18
-11 -12 -12 -13 -14 -14 -14 -15 -16 -16 -17 -17 -16 -17 -17 -17 -17 -18 -18 -18 -18 -18 -18 -18 -18 -18 -18 -17 -17 -18 -18 -18 -18 -19 -18 -18 -18 -17
-12 -12 -13 -14 -15 -15 -15 -16 -16 -16 -16 -17 -17 -17 -17 -17 -17 -17 -17 -18 -18 -18 -18 -18 -18 -18 -18 -18 -18 -18 -18 -18 -18 -19 -19 -18 -18 -17
-13 -14 -15 -15 -16 -16 -16 -17 -18 -17 -18 -17 -17 -17 -17 -17 -18 -18 -18 -18 -18 -18 -18 -18 -18 -18 -18 -18 -18 -18 -19 -19 -19 -19 -18 -18 -17 -17
-15 -15 -16 -16 -16 -17 -17 -18 -18 -18 -17 -18 -17 -17 -17 -17 -18 -18 -18 -18 -18 -18 -18 -18 -18 -18 -18 -18 -18 -19 -19 -19 -19 -19 -18 -18 -18 -18
-16 -17 -17 -17 -17 -17 -18 -18 -18 -18 -18 -17 -18 -17 -17 -18 -18 -18 -18 -18 -18 -18 -18 -18 -18 -18 -18 -18 -18 -19 -19 -19 -19 -19 -19 -18 -18 -18
-17 -18 -18 -19 -19 -19 -19 -19 -18 -18 -18 -17 -17 -18 -18 -18 -18 -18 -18 -18 -18 -18 -18 -18 -18 -18 -18 -18 -18 -19 -19 -19 -19 -19 -18 -18 -18 -18
-18 -19 -20 -20 -20 -19 -20 -19 -19 -18 -17 -17 -17 -18 -18 -18 -18 -18 -18 -18 -18 -19 -18 -18 -18 -18 -18 -18 -18 -19 -19 -19 -19 -19 -19 -18 -18 -18
-19 -20 -21 -21 -21 -20 -20 -19 -19 -18 -18 -18 -18 -18 -18 -18 -19 -18 -18 -18 -18 -19 -18 -19 -18 -18 -19 -18 -18 -18 -19 -19 -19 -19 -19 -18 -18 -18
-20 -20 -21 -21 -21 -21 -20 -20 -20 -19 -19 -18 -19 -19 -19 -19 -19 -18 -18 -18 -19 -19 -19 -19 -18 -18 -19 -18 -18 -18 -19 -19 -19 -19 -19 -19 -19 -18
Height
3095 3091 3088 3085 3082 3079 3077 3073 3070 3066 3063 3058 3055 3051 3047 3041 3036 3032 3029 3023 3019 3014 3010 3006 3002 2997 2995 2992 2988 2984 2980 2976 2972 2969 2968 2967 2968 2968
3084 3082 3078 3076 3073 3071 3068 3064 3061 3057 3051 3050 3046 3042 3038 3034 3029 3023 3019 3014 3009 3005 3001 2998 2993 2989 2986 2983 2979 2975 2970 2964 2960 2957 2955 2955 2955 2956
3076 3072 3070 3068 3064 3062 3058 3055 3051 3047 3043 3041 3037 3034 3030 3025 3020 3013 3008 3004 2998 2994 2991 2988 2984 2981 2978 2974 2971 2965 2960 2954 2950 2947 2945 2944 2944 2945
3067 3064 3061 3058 3054 3052 3049 3045 3042 3039 3034 3030 3028 3025 3020 3016 3011 3006 3000 2995 2990 2986 2982 2979 2976 2973 2970 2966 2961 2956 2950 2945 2941 2939 2937 2936 2935 2935
3057 3055 3052 3048 3045 3043 3040 3036 3033 3029 3025 3021 3017 3015 3010 3007 3002 2998 2992 2986 2982 2977 2974 2970 2968 2965 2962 2958 2953 2948 2942 2937 2934 2932 2930 2928 2927 2927
3049 3046 3043 3039 3037 3033 3031 3028 3025 3020 3018 3013 3009 3004 3001 2999 2994 2989 2984 2980 2975 2970 2967 2963 2960 2956 2953 2949 2945 2941 2936 2931 2928 2925 2923 2922 2920 2919
3040 3037 3033 3030 3027 3025 3023 3020 3017 3012 3008 3004 2999 2996 2993 2990 2986 2982 2976 2972 2967 2962 2958 2955 2952 2948 2945 2941 2936 2931 2927 2924 2922 2919 2918 2916 2915 2912
3031 3027 3024 3021 3018 3016 3015 3011 3007 3002 2998 2995 2990 2986 2983 2979 2975 2971 2966 2962 2957 2956 2950 2947 2944 2941 2938 2934 2930 2926 2921 2916 2914 2913 2912 2910 2909 2907
3022 3018 3015 3013 3009 3005 3001 2996 2995 2991 2986 2983 2977 2976 2971 2968 2965 2961 2957 2952 2949 2947 2942 2938 2937 2933 2931 2927 2922 2918 2913 2909 2907 2906 2905 2904 2903 2901
3014 3010 3006 3002 2998 2994 2990 2985 2979 2975 2972 2968 2965 2963 2959 2957 2954 2950 2946 2943 2941 2938 2934 2930 2929 2926 2923 2920 2915 2911 2906 2902 2899 2898 2897 2896 2896 2894
3003 3000 2996 2991 2987 2982 2975 2970 2967 2963 2961 2956 2952 2950 2947 2945 2943 2941 2937 2934 2931 2930 2927 2923 2921 2918 2915 2912 2908 2903 2899 2895 2892 2890 2889 2889 2888 2886
2992 2988 2984 2979 2974 2969 2962 2956 2951 2950 2948 2945 2941 2938 2936 2934 2932 2931 2929 2926 2924 2921 2920 2917 2914 2911 2908 2905 2901 2897 2892 2888 2885 2883 2882 2882 2881 2879
2980 2975 2970 2965 2959 2952 2947 2941 2937 2936 2934 2932 2929 2927 2925 2922 2920 2921 2921 2920 2918 2914 2912 2909 2908 2905 2901 2898 2895 2890 2886 2883 2880 2879 2878 2878 2876 2873
2969 2963 2956 2950 2943 2937 2931 2926 2923 2922 2920 2918 2917 2915 2915 2913 2913 2911 2909 2910 2909 2906 2905 2903 2901 2899 2896 2893 2889 2886 2881 2879 2877 2876 2875 2873 2872 2870
2956 2949 2942 2935 2927 2920 2915 2910 2907 2904 2903 2903 2904 2904 2905 2905 2904 2904 2904 2903 2902 2900 2898 2897 2895 2893 2890 2887 2884 2880 2877 2876 2874 2873 2872 2870 2869 2867
2942 2935 2927 2920 2913 2906 2901 2896 2893 2890 2889 2889 2891 2895 2896 2895 2895 2896 2896 2896 2895 2893 2892 2891 2889 2888 2885 2883 2879 2876 2874 2872 2871 2870 2868 2868 2867 2864
2925 2919 2912 2905 2899 2894 2889 2885 2883 2882 2881 2881 2882 2885 2885 2886 2886 2887 2888 2888 2888 2886 2885 2884 2883 2882 2880 2878 2875 2872 2871 2870 2868 2866 2865 2864 2864 2862
2914 2907 2901 2895 2889 2884 2879 2877 2875 2874 2874 2873 2874 2876 2877 2878 2878 2879 2880 2881 2881 2880 2879 2879 2878 2877 2875 2873 2871 2869 2868 2867 2865 2864 2863 2861 2861 2859
2903 2897 2891 2885 2879 2874 2869 2867 2866 2866 2866 2866 2867 2868 2870 2871 2871 2871 2872 2873 2874 2874 2873 2873 2873 2872 2871 2869 2868 2866 2865 2864 2863 2862 2860 2859 2858 2856
2894 2888 2882 2876 2870 2865 2861 2858 2858 2858 2858 2859 2860 2861 2863 2864 2864 2865 2866 2867 2867 2867 2867 2868 2868 2868 2866 2865 2864 2862 2861 2861 2860 2859 2858 2857 2856 2855
2884 2879 2874 2869 2864 2859 2854 2852 2852 2852 2850 2851 2853 2854 2855 2856 2857 2858 2860 2861 2861 2861 2862 2863 2863 2863 2862 2862 2861 2860 2858 2857 2857 2856 2855 2855 2853 2851
2876 2870 2866 2862 2857 2853 2849 2847 2847 2846 2845 2847 2848 2848 2849 2850 2851 2852 2853 2855 2855 2856 2857 2858 2858 2859 2859 2858 2857 2856 2854 2853 2853 2853 2852 2852 2851 2849
2867 2862 2858 2854 2850 2846 2843 2840 2840 2841 2840 2839 2841 2843 2843 2844 2845 2846 2847 2849 2849 2850 2852 2853 2854 2855 2855 2854 2854 2853 2851 2850 2849 2849 2849 2849 2848 2846
Wind_Speed
45 44 41 38 37 36 33 36 36 39 40 34 30 33 36 39 44 45 42 41 39 38 38 37 37 37 35 33 34 36 39 42 43 43 43 43 42 42
40 49 38 39 38 33 35 35 36 40 39 31 31 35 37 37 41 45 40 39 38 36 36 34 34 34 32 32 34 37 40 40 39 38 38 37 37 37
47 44 43 39 34 34 35 38 40 38 37 36 34 34 34 38 39 43 43 40 38 36 35 33 34 32 32 33 34 37 39 37 35 33 33 33 33 33
38 44 42 37 37 37 40 39 37 37 39 39 39 37 37 36 37 39 42 40 35 33 34 32 32 32 31 33 35 36 36 33 32 31 29 29 29 30
40 40 39 39 40 42 38 38 37 39 38 38 38 38 38 34 37 37 39 41 38 32 34 34 31 31 30 31 33 34 34 31 28 26 26 27 28 29
40 39 40 41 42 37 35 37 39 36 38 39 37 42 36 33 36 34 39 33 34 38 33 33 31 32 30 32 33 31 31 27 24 23 23 24 25 27
39 40 40 38 37 35 36 38 38 39 42 43 45 42 39 35 36 34 38 41 39 36 34 32 29 30 30 32 33 34 32 27 23 22 20 19 20 22
36 36 37 36 36 37 38 40 42 43 43 43 46 44 44 47 41 39 39 43 40 33 31 32 29 29 30 31 31 30 30 29 26 23 21 19 18 20
35 36 37 37 38 40 43 46 43 43 45 45 47 44 43 43 39 41 46 41 40 35 34 32 28 28 28 30 31 31 31 28 26 24 23 23 22 21
37 38 40 41 42 44 45 46 49 49 45 44 44 42 40 38 37 39 40 40 37 34 32 31 27 26 27 28 30 31 29 26 26 26 26 24 24 25
39 41 43 44 45 46 49 50 49 48 46 45 44 41 40 39 35 33 37 37 36 33 29 27 26 26 26 27 29 31 28 25 27 27 27 26 25 28
44 45 46 47 48 49 51 51 46 45 43 42 43 42 40 38 35 36 32 32 32 32 26 23 24 26 27 26 28 30 28 25 24 23 21 22 25 30
47 49 50 51 52 54 53 52 49 45 44 42 41 41 38 38 37 38 32 32 31 28 23 25 22 24 26 27 27 27 25 20 16 14 15 19 22 24
49 52 55 56 57 55 53 51 48 46 46 47 43 44 34 35 32 39 35 34 33 29 23 23 22 23 24 24 27 24 21 15 13 13 14 16 16 17
53 55 55 54 52 50 48 46 43 43 45 46 39 36 30 30 29 33 32 30 31 29 25 22 22 22 23 23 25 22 17 11 11 12 14 12 10 16
55 53 51 47 44 43 41 38 36 34 35 33 36 37 33 29 32 30 30 27 29 26 22 21 20 21 21 21 22 19 14 12 13 12 11 6 9 14
53 51 48 46 43 40 34 29 26 25 28 29 22 30 26 27 29 30 25 25 27 25 22 20 20 18 18 18 18 16 12 10 12 11 8 6 7 12
48 47 45 42 40 38 34 28 21 23 26 27 27 26 22 24 27 26 28 28 28 25 21 19 18 17 17 17 16 13 12 10 11 8 8 7 8 11
44 42 41 41 40 36 32 27 24 22 25 23 23 22 21 23 24 25 26 26 28 24 21 19 17 16 15 15 15 13 11 10 9 9 9 9 10 11
40 39 38 36 34 33 28 26 25 24 22 18 24 25 25 22 22 22 23 23 26 22 20 19 17 14 14 14 13 13 12 12 11 10 10 10 10 8
38 37 34 31 30 30 25 21 19 21 17 24 24 23 23 22 19 21 23 23 25 22 20 18 17 12 13 13 12 12 13 14 13 12 9 9 11 11
38 35 31 29 29 30 24 23 19 15 12 16 19 20 20 18 18 21 22 23 23 20 19 18 16 13 13 13 12 11 11 14 13 13 12 12 12 12
38 36 32 30 29 28 26 24 24 18 17 16 15 18 18 17 17 21 21 21 22 20 19 18 16 14 12 12 11 11 11 11 12 13 12 12 12 11
Wind_Direction
287 283 287 292 288 296 293 297 301 298 293 286 286 288 292 296 298 301 306 306 307 305 302 300 298 296 297 298 297 297 296 292 286 281 278 275 271 267
296 279 289 290 299 296 297 301 302 292 286 287 288 291 296 296 296 299 304 303 304 303 299 298 295 296 296 296 299 303 301 296 288 283 279 275 273 269
296 283 290 297 295 295 299 306 292 286 288 293 292 292 290 292 293 297 303 305 303 302 301 301 298 296 296 299 303 305 304 297 289 283 278 274 271 269
291 290 293 297 296 296 304 292 288 285 289 295 298 295 292 290 293 290 298 302 303 301 301 300 296 295 297 301 304 307 305 296 289 284 280 275 272 268
286 294 299 298 295 299 292 287 287 288 290 293 291 286 291 292 292 293 293 299 304 303 304 301 297 294 299 302 306 310 307 298 291 285 281 278 275 271
297 299 298 296 293 290 286 286 289 289 293 294 288 291 294 289 289 290 291 295 291 296 299 297 296 295 301 304 306 309 309 299 291 285 282 283 282 278
297 296 294 291 290 287 286 288 289 287 287 287 287 292 289 282 278 280 282 278 291 298 299 297 295 297 301 306 310 314 314 301 289 283 284 290 290 286
296 294 294 292 290 288 287 287 287 287 284 281 285 287 287 285 291 284 281 284 290 294 292 294 294 294 298 303 308 311 308 299 288 280 281 286 291 296
297 295 293 292 292 292 292 292 289 286 284 285 283 287 287 284 284 278 282 286 291 296 291 292 291 292 296 302 308 312 310 301 289 277 276 279 284 293
298 297 297 297 296 295 292 290 291 292 291 287 287 290 285 283 278 280 285 289 291 291 290 290 292 295 298 303 307 311 311 299 288 278 275 278 278 289
301 301 301 300 300 297 294 294 291 287 285 284 288 287 284 284 281 287 290 288 291 291 288 286 291 295 300 307 310 314 313 300 291 285 279 279 285 293
305 303 301 301 300 297 293 291 285 284 283 283 282 284 284 283 282 278 292 290 294 290 290 282 288 299 301 308 313 316 313 307 298 292 287 288 292 296
304 305 304 302 300 298 295 291 286 285 284 283 280 276 279 282 283 281 280 284 298 293 285 276 289 296 302 309 314 318 314 312 304 303 300 294 296 300
305 305 304 302 300 297 294 291 286 277 276 281 274 274 270 276 277 276 286 287 297 301 292 283 289 297 303 309 315 318 313 308 305 310 303 302 308 313
306 306 305 304 302 299 296 292 288 280 271 267 276 272 283 278 274 274 282 283 290 293 289 281 288 294 302 310 315 318 311 298 305 313 306 309 329 338
310 311 311 310 307 303 299 294 288 284 275 270 264 269 273 270 268 275 274 276 286 289 280 275 283 292 300 308 314 316 306 301 305 306 305 288 330 327
315 316 317 315 313 310 307 302 288 277 273 261 272 268 261 269 266 269 270 272 284 290 281 276 283 291 299 309 312 306 298 298 312 303 281 272 317 315
317 317 316 314 311 307 299 289 282 277 272 269 265 260 254 264 265 263 263 268 281 286 277 273 279 290 298 307 313 305 288 290 312 304 294 287 304 315
316 316 316 314 311 307 299 281 266 266 273 271 273 253 269 267 264 261 266 267 275 280 271 269 275 285 294 304 308 303 282 286 295 309 312 305 311 314
315 316 316 316 315 313 299 285 264 265 258 278 272 263 272 268 261 262 263 262 274 273 263 263 270 280 293 302 307 300 281 271 281 299 302 311 315 318
317 317 317 318 316 318 301 283 270 271 259 257 269 258 261 262 250 257 261 264 273 263 257 257 264 275 287 294 299 295 275 278 270 278 288 307 321 311
316 315 314 315 316 319 302 271 276 259 243 270 273 265 263 261 255 255 262 263 274 252 250 251 260 267 279 287 296 300 291 279 269 267 277 286 304 314
313 311 308 310 311 311 311 282 268 255 238 228 245 265 261 255 256 261 257 263 269 245 244 246 254 260 274 283 292 300 303 295 282 273 273 278 291 307